[[{"header":{"parameterUnit":"m.s-1","parameterCategory":2,"la1":30.2991,"la2":30.254,"lo1":-89.0895,"lo2":-89.0444,"dy":0.0017,"dx":0.0017,"nx":28,"ny":28,"refTime":"2024-03-01T09:00:00:Z","depth":"0","parameterNumber":2,"parameterNumberName":"U-component_of_CURRENTS"},"data":[0,0,0,0,0,0,0,0,0,0,0,0,0,0,0,0,0,0,0,0,0,0,0,0,0,0,0,0,0,0,0,0,0,0,0,0,0,0,0,0,0,0,0,0,0,0,0,0,0,0,0,0,0,0,0,0,0,0,-0.1879,-0.1879,0,-0.188,-0.188,-0.188,-0.1869,-0.1869,-0.1869,-0.1868,-0.1824,-0.1823,-0.1822,0,0,0,0,0,0,0,0,0,0,0,0,0,-0.1858,-0.1859,-0.1879,-0.1879,-0.1879,-0.188,-0.188,-0.188,-0.1869,-0.1869,-0.1869,-0.1868,-0.1824,-0.1823,-0.1822,0,0,0,0,0,0,0,0,0,0,0,0,0,-0.1863,-0.1859,-0.1879,-0.1874,-0.1874,-0.188,-0.188,-0.188,-0.1869,-0.1869,-0.1868,-0.1868,-0.1825,-0.1823,-0.1822,-0.1819,0,0,-0.1817,-0.1817,0,0,0,0,0,0,0,0,-0.1863,-0.1864,-0.1875,-0.1875,-0.1874,-0.1875,-0.1857,-0.1858,-0.1869,-0.187,-0.1868,-0.1868,-0.1838,-0.1835,-0.1835,-0.1817,-0.1815,-0.1817,-0.1816,-0.1816,-0.1815,0,0,0,0,0,0,0,-0.1863,-0.1864,-0.1879,-0.1875,-0.1875,-0.1869,-0.187,-0.1857,-0.1854,-0.187,-0.1869,-0.1871,-0.1837,-0.1837,-0.1834,-0.1815,-0.1817,-0.1816,-0.1815,-0.1814,-0.178,-0.178,0,0,0,0,0,0,-0.1865,-0.1864,-0.1878,-0.1879,-0.1869,-0.187,-0.187,-0.1874,-0.1855,-0.1853,-0.1871,-0.1871,-0.184,-0.1836,-0.1832,-0.1823,-0.1816,-0.1814,-0.1813,-0.178,-0.178,-0.178,0,0,0,0,0,0,-0.1865,-0.1867,-0.1878,-0.1872,-0.1873,-0.1871,-0.1875,-0.1875,-0.1874,-0.1857,-0.1853,-0.1872,-0.1839,-0.1834,-0.1823,-0.1821,-0.1814,-0.1812,-0.178,-0.178,-0.178,-0.1808,0,0,0,0,0,0,-0.1864,-0.1867,-0.1869,-0.1872,-0.1873,-0.1884,-0.1876,-0.1875,-0.1876,-0.1875,-0.1856,-0.1852,-0.1839,-0.1825,-0.1821,-0.1819,-0.1811,-0.178,-0.178,-0.178,-0.1807,-0.1808,-0.181,0,0,0,0,0,-0.1864,-0.187,-0.1869,-0.1871,-0.1877,-0.1884,-0.1885,-0.1881,-0.1877,-0.1879,-0.1866,-0.1852,-0.1821,-0.1824,-0.182,-0.1817,-0.178,-0.178,-0.178,-0.1806,-0.1808,-0.181,0,0,0,0,0,0,-0.185,-0.187,-0.1869,-0.1877,-0.1881,-0.1883,-0.1885,-0.1883,-0.1876,-0.1875,-0.1855,-0.185,-0.1835,-0.1824,-0.1827,-0.1806,-0.1797,-0.1796,-0.1819,-0.1821,-0.1822,-0.1831,-0.181,0,0,0,0,0,-0.1852,-0.1865,-0.1876,-0.1878,-0.1885,-0.1885,-0.1887,-0.1888,-0.1884,-0.1881,-0.1866,-0.1849,-0.1832,-0.1825,-0.1809,-0.1802,-0.181,-0.1796,-0.1798,-0.1799,-0.1803,-0.1813,-0.1816,-0.1779,-0.1779,-0.1779,0,0,-0.1842,-0.1856,-0.1859,-0.1876,-0.188,-0.1887,-0.1885,-0.1894,-0.1893,-0.1876,-0.1866,-0.1853,-0.1831,-0.182,-0.1813,-0.1811,-0.1818,-0.1799,-0.1801,-0.1803,-0.1813,-0.1817,-0.182,-0.1779,-0.1779,-0.1779,0,0,-0.1829,-0.1848,-0.1853,-0.1867,-0.1883,-0.189,-0.1894,-0.19,-0.1898,-0.1895,-0.1876,-0.1866,-0.1844,-0.183,-0.1819,-0.182,-0.1823,-0.1811,-0.183,-0.1841,-0.1844,-0.1847,-0.1883,-0.1889,-0.1816,-0.1816,-0.1816,0,-0.1808,-0.183,-0.1852,-0.1864,-0.1879,-0.1891,-0.1901,-0.19,-0.1898,-0.1903,-0.1894,-0.1872,-0.1849,-0.1839,-0.1835,-0.1824,-0.1841,-0.1826,-0.1844,-0.1847,-0.185,-0.1885,-0.1892,-0.1817,-0.1817,-0.1817,-0.1817,0,-0.1801,-0.1824,-0.1832,-0.1856,-0.1871,-0.1887,-0.19,-0.191,-0.1914,-0.1915,-0.1913,-0.1889,-0.1882,-0.1866,-0.1848,-0.1852,-0.1863,-0.1844,-0.1843,-0.1856,-0.1892,-0.1898,-0.1819,-0.1819,-0.1818,-0.1818,0,0,-0.1749,-0.1812,-0.1817,-0.1846,-0.1879,-0.1897,-0.1905,-0.1926,-0.1949,-0.1936,-0.1957,-0.1916,-0.1918,-0.1905,-0.1884,-0.1884,-0.1915,-0.1874,-0.1874,-0.1917,-0.1964,-0.2063,-0.2079,-0.1903,-0.1903,-0.1904,-0.199,0,-0.1737,-0.1776,-0.1805,-0.1844,-0.1876,-0.1906,-0.1922,-0.1943,-0.196,-0.1984,-0.1965,-0.1971,-0.1928,-0.1935,-0.1926,-0.1918,-0.1929,-0.1895,-0.1938,-0.194,-0.2032,-0.2088,-0.2129,-0.2217,-0.1996,-0.1997,-0.1997,0,-0.1732,-0.1768,-0.1805,-0.1883,-0.1897,-0.1912,-0.1976,-0.1989,-0.2021,-0.2035,-0.204,-0.2037,-0.2033,-0.1996,-0.1998,-0.1983,-0.1976,-0.1967,-0.197,-0.2056,-0.205,-0.2163,-0.2237,-0.2236,-0.2007,-0.2006,-0.2005,0,-0.1728,-0.1781,-0.1819,-0.1841,-0.1909,-0.1931,-0.1961,-0.2003,-0.2031,-0.2069,-0.2107,-0.2099,-0.2118,-0.2093,-0.2087,-0.2045,-0.2111,-0.2051,-0.2135,-0.2142,-0.2184,-0.2194,-0.2267,-0.2057,-0.2057,-0.2056,-0.2056,0,-0.1735,-0.1772,-0.1823,-0.1851,-0.1901,-0.1942,-0.1991,-0.2026,-0.2075,-0.2135,-0.213,-0.2188,-0.2143,-0.2179,-0.2137,-0.2191,-0.2158,-0.2165,-0.2178,-0.2198,-0.2208,-0.2213,-0.2199,-0.206,-0.2059,-0.2058,-0.2058,0,-0.1739,-0.1771,-0.1825,-0.1887,-0.1906,-0.194,-0.2004,-0.205,-0.2097,-0.2179,-0.2198,-0.2264,-0.2334,-0.2315,-0.2315,-0.2291,-0.2309,-0.2323,-0.2372,-0.2391,-0.2459,-0.2445,-0.251,-0.2433,-0.2426,-0.2429,-0.2432,0,-0.1749,-0.1774,-0.1839,-0.1865,-0.1891,-0.194,-0.1986,-0.2046,-0.2102,-0.2242,-0.2295,-0.2397,-0.2505,-0.2572,-0.2554,-0.2559,-0.2452,-0.2577,-0.2492,-0.2507,-0.2498,-0.2431,-0.2352,-0.2556,-0.256,-0.2563,-0.2565,0,-0.1758,-0.1774,-0.1808,-0.186,-0.1906,-0.1963,-0.2033,-0.2087,-0.2194,-0.2296,-0.2475,-0.2582,-0.2706,-0.2788,-0.2804,-0.2761,-0.2571,-0.2637,-0.2622,-0.2605,-0.2563,-0.2482,-0.2467,-0.259,-0.2587,-0.2585,-0.2584,-0.2583,-0.1749,-0.1764,-0.1799,-0.1843,-0.19,-0.1979,-0.2,-0.2129,-0.225,-0.2422,-0.2584,-0.2791,-0.2935,-0.2994,-0.2955,-0.2922,-0.2784,-0.2832,-0.2815,-0.2745,-0.2675,-0.2749,-0.2904,-0.2903,-0.2903,-0.2902,-0.2902,0,-0.1731,-0.1744,-0.1783,-0.1829,-0.1863,-0.1908,-0.2019,-0.2047,-0.2193,-0.2459,-0.265,-0.3021,-0.3144,-0.3189,-0.323,-0.3136,-0.295,-0.3017,-0.2896,-0.2796,-0.2858,-0.2867,-0.3058,-0.3058,-0.3058,-0.3058,-0.3058,-0.3058,-0.1722,-0.1729,-0.1742,-0.1766,-0.1792,-0.181,-0.185,-0.1947,-0.2101,-0.2421,-0.2719,-0.3012,-0.3108,-0.35,-0.3438,-0.3275,-0.308,-0.3049,-0.2914,-0.2957,-0.2936,-0.2915,-0.2919,-0.3118,-0.3118,-0.2791,-0.2789,-0.2788]},{"header":{"parameterUnit":"m.s-1","parameterCategory":2,"la1":30.2991,"la2":30.254,"lo1":-89.0895,"lo2":-89.0444,"dy":0.0017,"dx":0.0017,"nx":28,"ny":28,"refTime":"2024-03-01T09:00:00:Z","depth":"0","parameterNumber":3,"parameterNumberName":"V-component_of_CURRENTS"},"data":[0,0,0,0,0,0,0,0,0,0,0,0,0,0,0,0,0,0,0,0,0,0,0,0,0,0,0,0,0,0,0,0,0,0,0,0,0,0,0,0,0,0,0,0,0,0,0,0,0,0,0,0,0,0,0,0,0,0,-0.0012,-0.0011,0,0.0081,0.0082,0.0084,0.0157,0.0157,0.0157,0.0157,0.0273,0.0276,0.0278,0,0,0,0,0,0,0,0,0,0,0,0,0,-0.0043,-0.0043,-0.0012,-0.0011,-0.0011,0.008,0.0082,0.0084,0.0157,0.0157,0.0157,0.0157,0.0272,0.0275,0.0279,0,0,0,0,0,0,0,0,0,0,0,0,0,0.0007,-0.0043,-0.0012,0.0032,0.0037,0.008,0.0082,0.0085,0.0156,0.0157,0.0157,0.0157,0.0271,0.0275,0.0279,0.03,0,0,0.0292,0.0294,0,0,0,0,0,0,0,0,0.0004,0.0009,0.0025,0.0029,0.0034,0.0103,0.0114,0.0156,0.0156,0.0117,0.0157,0.0158,0.0214,0.0223,0.0247,0.0305,0.031,0.0293,0.0295,0.0297,0.0299,0,0,0,0,0,0,0,0.0001,0.0006,0.003,0.0026,0.0031,0.0076,0.0083,0.0123,0.0167,0.012,0.0124,0.0126,0.0218,0.0243,0.0251,0.0312,0.0293,0.0297,0.0299,0.0301,0.0422,0.0423,0,0,0,0,0,0,-0.0027,0.0002,0.0027,0.0033,0.0014,0.0075,0.0084,0.0085,0.0167,0.0178,0.0126,0.0129,0.0236,0.0246,0.0255,0.0304,0.0297,0.0301,0.0304,0.0422,0.0423,0.0423,0,0,0,0,0,0,-0.0028,-0.0025,0.0024,0.0015,0.0024,0.0074,0.0076,0.0086,0.0113,0.0169,0.0182,0.014,0.0236,0.0249,0.0298,0.0308,0.0303,0.0307,0.0421,0.0422,0.0423,0.0388,0,0,0,0,0,0,-0.0029,-0.0026,-0.0031,0.0013,0.0023,0.0043,0.0075,0.0088,0.011,0.0116,0.0186,0.0197,0.0237,0.0291,0.0302,0.0314,0.0311,0.042,0.0421,0.0423,0.0389,0.0388,0.0387,0,0,0,0,0,-0.003,-0.0041,-0.0032,-0.0029,0.0013,0.0042,0.0052,0.0093,0.011,0.0119,0.0174,0.0195,0.0307,0.0295,0.0308,0.0321,0.042,0.0421,0.0423,0.0389,0.0388,0.0387,0,0,0,0,0,0,-0.0054,-0.0034,-0.0023,-0.0026,0.0001,0.0052,0.006,0.0088,0.0139,0.0148,0.0204,0.022,0.0265,0.0298,0.0284,0.036,0.0366,0.037,0.0336,0.0336,0.0335,0.0329,0.0314,0,0,0,0,0,-0.0066,-0.0071,-0.0039,-0.0043,-0.0033,0.0013,0.003,0.0059,0.0104,0.0128,0.0176,0.0231,0.0281,0.031,0.0355,0.0397,0.0426,0.0414,0.0413,0.0412,0.0417,0.0476,0.0481,0.0428,0.0428,0.0428,0,0,-0.008,-0.0068,-0.0072,-0.0049,-0.0023,-0.0007,0.0026,0.0048,0.0072,0.0131,0.0179,0.0226,0.0291,0.034,0.0364,0.037,0.0438,0.0414,0.0413,0.0418,0.0478,0.0484,0.0488,0.0429,0.0429,0.0429,0,0,-0.0109,-0.0097,-0.0109,-0.0088,-0.0061,-0.0026,-0.0024,0.0026,0.0059,0.0106,0.0158,0.0215,0.0283,0.0342,0.0378,0.0401,0.0429,0.0407,0.0406,0.0464,0.0468,0.0473,0.0493,0.05,0.0412,0.0412,0.0412,0,-0.0127,-0.0133,-0.0106,-0.0106,-0.0093,-0.0039,-0.0037,0.0008,0.007,0.0102,0.0114,0.0242,0.029,0.0371,0.038,0.04,0.0421,0.0401,0.0462,0.0467,0.0473,0.0493,0.0501,0.041,0.041,0.0411,0.0411,0,-0.0159,-0.016,-0.0164,-0.0145,-0.0123,-0.0113,-0.0058,-0.0021,0.0024,0.0073,0.0152,0.0231,0.0308,0.0332,0.0365,0.0431,0.0427,0.0448,0.046,0.0476,0.0496,0.0504,0.0408,0.0409,0.0409,0.0409,0,0,-0.0205,-0.0193,-0.0192,-0.0192,-0.0143,-0.013,-0.0084,-0.0025,0.0011,0.0086,0.014,0.0241,0.0286,0.0331,0.0386,0.0442,0.0489,0.0455,0.0459,0.0467,0.0587,0.0644,0.0659,0.0517,0.0519,0.0521,0.0577,0,-0.0237,-0.0259,-0.023,-0.023,-0.0233,-0.0167,-0.013,-0.0065,0.0003,0.007,0.0173,0.0239,0.0286,0.0321,0.0389,0.0469,0.0515,0.0471,0.0578,0.0581,0.0625,0.0674,0.0751,0.0814,0.0585,0.0587,0.0588,0,-0.027,-0.0282,-0.0301,-0.0277,-0.027,-0.0251,-0.0179,-0.014,-0.0025,0.0027,0.0125,0.0202,0.031,0.0336,0.0489,0.0455,0.0515,0.0572,0.0576,0.0653,0.0657,0.0768,0.0839,0.1082,0.0602,0.0601,0.06,0,-0.0321,-0.0322,-0.0344,-0.0338,-0.0301,-0.0282,-0.0249,-0.0152,-0.0123,-0.0001,0.0033,0.0183,0.0244,0.0365,0.0495,0.0488,0.0648,0.0655,0.076,0.0762,0.0864,0.0873,0.1183,0.0752,0.0751,0.0751,0.0751,0,-0.0362,-0.0375,-0.0372,-0.0384,-0.0394,-0.0341,-0.0322,-0.0259,-0.0179,-0.0152,-0.0003,0.0052,0.0252,0.0373,0.0488,0.0661,0.0646,0.0774,0.0798,0.0851,0.0859,0.1103,0.1191,0.0753,0.0753,0.0752,0.0752,0,-0.0409,-0.0407,-0.0437,-0.0426,-0.0422,-0.043,-0.0399,-0.039,-0.0296,-0.0255,-0.0226,-0.0048,0.0125,0.0321,0.0519,0.0645,0.0945,0.0856,0.089,0.092,0.1259,0.1339,0.1608,0.1698,0.0994,0.0996,0.0998,0,-0.0434,-0.0458,-0.0488,-0.052,-0.0518,-0.0523,-0.0534,-0.046,-0.0453,-0.0323,-0.0319,-0.0128,0.0006,0.0344,0.0634,0.0884,0.1023,0.1074,0.1099,0.1319,0.1425,0.1458,0.1515,0.12,0.1204,0.1206,0.1208,0,-0.0485,-0.0499,-0.0532,-0.0613,-0.0645,-0.0682,-0.0687,-0.0698,-0.0615,-0.057,-0.048,-0.0355,0.0048,0.0429,0.0806,0.0948,0.1276,0.1136,0.1381,0.1642,0.1683,0.1767,0.1088,0.1232,0.123,0.1228,0.1227,0.1226,-0.0522,-0.0571,-0.0636,-0.071,-0.0772,-0.0848,-0.0891,-0.0887,-0.0892,-0.0819,-0.0636,-0.0416,0.0265,0.0842,0.1048,0.1581,0.147,0.1712,0.1791,0.1803,0.1921,0.128,0.1446,0.1445,0.1444,0.1443,0.1442,0,-0.0571,-0.0644,-0.0731,-0.0838,-0.0951,-0.0946,-0.1009,-0.1057,-0.1096,-0.0937,-0.0812,-0.0084,0.0577,0.1196,0.2002,0.2258,0.2268,0.2353,0.2453,0.2476,0.1948,0.1993,0.2268,0.2268,0.2267,0.2267,0.2267,0.2267,-0.06,-0.0709,-0.0774,-0.0984,-0.1069,-0.1213,-0.1264,-0.1306,-0.123,-0.0978,-0.0597,-0.0245,0.0765,0.2194,0.2941,0.2942,0.3133,0.3074,0.3151,0.2849,0.2795,0.2745,0.2815,0.3257,0.3258,0.366,0.3664,0.3668]}],[{"header":{"parameterUnit":"m.s-1","parameterCategory":2,"la1":30.2991,"la2":30.254,"lo1":-89.0895,"lo2":-89.0444,"dy":0.0017,"dx":0.0017,"nx":28,"ny":28,"refTime":"2024-03-01T09:00:00:Z","depth":"2","parameterNumber":2,"parameterNumberName":"U-component_of_CURRENTS"},"data":[0,0,0,0,0,0,0,0,0,0,0,0,0,0,0,0,0,0,0,0,0,0,0,0,0,0,0,0,0,0,0,0,0,0,0,0,0,0,0,0,0,0,0,0,0,0,0,0,0,0,0,0,0,0,0,0,0,0,-0.1835,-0.1835,0,-0.1836,-0.1836,-0.1836,-0.1826,-0.1826,-0.1825,-0.1825,-0.178,-0.1779,-0.1778,0,0,0,0,0,0,0,0,0,0,0,0,0,-0.1814,-0.1814,-0.1835,-0.1835,-0.1835,-0.1836,-0.1836,-0.1836,-0.1826,-0.1826,-0.1825,-0.1825,-0.178,-0.1779,-0.1778,0,0,0,0,0,0,0,0,0,0,0,0,0,-0.1819,-0.1815,-0.1835,-0.1831,-0.1831,-0.1836,-0.1836,-0.1836,-0.1826,-0.1826,-0.1825,-0.1825,-0.178,-0.1779,-0.1777,-0.1774,0,0,-0.1773,-0.1772,0,0,0,0,0,0,0,0,-0.1819,-0.182,-0.1831,-0.1831,-0.1831,-0.1831,-0.1812,-0.1813,-0.1826,-0.1827,-0.1825,-0.1825,-0.1793,-0.1791,-0.1791,-0.1772,-0.177,-0.1773,-0.1772,-0.1771,-0.1771,0,0,0,0,0,0,0,-0.1818,-0.182,-0.1835,-0.1832,-0.1831,-0.1826,-0.1826,-0.1812,-0.181,-0.1827,-0.1826,-0.1828,-0.1793,-0.1793,-0.179,-0.1769,-0.1773,-0.1771,-0.177,-0.177,-0.1733,-0.1733,0,0,0,0,0,0,-0.1821,-0.1819,-0.1835,-0.1835,-0.1825,-0.1826,-0.1827,-0.1831,-0.1811,-0.1809,-0.1828,-0.1827,-0.1795,-0.1792,-0.1788,-0.1778,-0.1771,-0.177,-0.1769,-0.1733,-0.1733,-0.1733,0,0,0,0,0,0,-0.1821,-0.1823,-0.1834,-0.1828,-0.1829,-0.1827,-0.1832,-0.1831,-0.1831,-0.1813,-0.1809,-0.1829,-0.1795,-0.179,-0.1778,-0.1776,-0.1769,-0.1767,-0.1733,-0.1733,-0.1733,-0.176,0,0,0,0,0,0,-0.182,-0.1823,-0.1825,-0.1828,-0.1829,-0.184,-0.1832,-0.1831,-0.1833,-0.1832,-0.1813,-0.1808,-0.1794,-0.178,-0.1776,-0.1774,-0.1766,-0.1733,-0.1733,-0.1733,-0.1759,-0.1761,-0.1762,0,0,0,0,0,-0.1819,-0.1825,-0.1825,-0.1827,-0.1833,-0.184,-0.184,-0.1837,-0.1833,-0.1836,-0.1822,-0.1809,-0.1777,-0.1779,-0.1774,-0.1771,-0.1733,-0.1733,-0.1733,-0.1759,-0.1761,-0.1762,0,0,0,0,0,0,-0.1805,-0.1825,-0.1825,-0.1833,-0.1837,-0.1839,-0.1841,-0.184,-0.1832,-0.1831,-0.1811,-0.1805,-0.1791,-0.1779,-0.1782,-0.176,-0.1752,-0.1751,-0.1773,-0.1774,-0.1776,-0.1785,-0.1765,0,0,0,0,0,-0.1807,-0.182,-0.1831,-0.1833,-0.184,-0.1841,-0.1843,-0.1844,-0.184,-0.1837,-0.1822,-0.1805,-0.1787,-0.178,-0.1763,-0.1755,-0.1763,-0.1749,-0.175,-0.1752,-0.1755,-0.1766,-0.177,-0.1733,-0.1733,-0.1733,0,0,-0.1796,-0.1811,-0.1814,-0.1831,-0.1835,-0.1842,-0.1841,-0.1849,-0.1848,-0.1832,-0.1822,-0.1808,-0.1785,-0.1774,-0.1766,-0.1765,-0.177,-0.1752,-0.1753,-0.1756,-0.1767,-0.177,-0.1774,-0.1733,-0.1733,-0.1733,0,0,-0.1782,-0.1801,-0.1807,-0.182,-0.1837,-0.1844,-0.1848,-0.1855,-0.1853,-0.1849,-0.1831,-0.1821,-0.1798,-0.1783,-0.1771,-0.1772,-0.1775,-0.1763,-0.1782,-0.1793,-0.1796,-0.1799,-0.1834,-0.184,-0.1768,-0.1768,-0.1768,0,-0.1761,-0.1783,-0.1805,-0.1817,-0.1832,-0.1845,-0.1854,-0.1854,-0.1852,-0.1857,-0.1849,-0.1826,-0.1802,-0.1791,-0.1787,-0.1775,-0.1793,-0.1778,-0.1796,-0.1799,-0.1802,-0.1837,-0.1843,-0.1769,-0.1769,-0.1769,-0.1769,0,-0.1753,-0.1776,-0.1783,-0.1808,-0.1822,-0.1839,-0.1851,-0.1862,-0.1867,-0.1868,-0.1865,-0.1841,-0.1834,-0.1818,-0.18,-0.1803,-0.1815,-0.1796,-0.1795,-0.1808,-0.1843,-0.1849,-0.1771,-0.1771,-0.177,-0.177,0,0,-0.1701,-0.1763,-0.1768,-0.1797,-0.1829,-0.1847,-0.1855,-0.1876,-0.1899,-0.1886,-0.1907,-0.1865,-0.1868,-0.1855,-0.1834,-0.1834,-0.1865,-0.1826,-0.1825,-0.1868,-0.1915,-0.2011,-0.2027,-0.1854,-0.1855,-0.1855,-0.194,0,-0.1688,-0.1726,-0.1755,-0.1793,-0.1825,-0.1855,-0.187,-0.1892,-0.1908,-0.1933,-0.1914,-0.1919,-0.1877,-0.1885,-0.1876,-0.1869,-0.1879,-0.1845,-0.189,-0.1891,-0.1981,-0.2036,-0.1833,-0.1898,-0.1946,-0.1947,-0.1947,0,-0.1683,-0.1719,-0.1754,-0.1832,-0.1846,-0.1861,-0.1924,-0.1936,-0.1968,-0.1982,-0.1988,-0.1985,-0.198,-0.1945,-0.1948,-0.1933,-0.1926,-0.1918,-0.1921,-0.2005,-0.1999,-0.1888,-0.1907,-0.1957,-0.1957,-0.1956,-0.1955,0,-0.168,-0.1731,-0.177,-0.1791,-0.1858,-0.188,-0.1909,-0.1951,-0.1978,-0.2016,-0.2054,-0.2046,-0.2065,-0.2042,-0.2036,-0.1995,-0.206,-0.2001,-0.2083,-0.209,-0.1924,-0.1916,-0.2008,-0.2008,-0.2008,-0.2007,-0.2007,0,-0.1687,-0.1724,-0.1774,-0.1802,-0.1851,-0.1891,-0.194,-0.1975,-0.2023,-0.2082,-0.2077,-0.2134,-0.2091,-0.2126,-0.2085,-0.2138,-0.2107,-0.2112,-0.2126,-0.1932,-0.1925,-0.1969,-0.1963,-0.2011,-0.201,-0.2009,-0.2009,0,-0.1692,-0.1724,-0.1776,-0.1838,-0.1856,-0.1891,-0.1953,-0.1998,-0.2045,-0.2126,-0.2145,-0.221,-0.2279,-0.226,-0.2261,-0.2237,-0.2248,-0.2268,-0.2072,-0.2063,-0.2252,-0.2246,-0.2361,-0.2365,-0.2369,-0.2372,-0.2375,0,-0.1702,-0.1727,-0.1791,-0.1817,-0.1843,-0.1891,-0.1936,-0.1995,-0.205,-0.2188,-0.224,-0.2341,-0.2437,-0.2502,-0.2431,-0.242,-0.2393,-0.2262,-0.2146,-0.2291,-0.2291,-0.228,-0.227,-0.1922,-0.192,-0.1919,-0.1918,0,-0.1712,-0.1728,-0.1762,-0.1813,-0.1858,-0.1913,-0.1982,-0.2035,-0.2139,-0.2229,-0.2404,-0.25,-0.2574,-0.2502,-0.2494,-0.2429,-0.2247,-0.225,-0.2427,-0.1902,-0.1894,-0.189,-0.1889,-0.1908,-0.1909,-0.191,-0.1911,-0.1911,-0.1704,-0.1718,-0.1753,-0.1796,-0.1852,-0.1928,-0.1949,-0.2029,-0.2131,-0.2213,-0.2427,-0.2474,-0.2478,-0.2377,-0.2307,-0.2195,-0.2316,-0.217,-0.2164,-0.2161,-0.2134,-0.2136,-0.2191,-0.2194,-0.2196,-0.2198,-0.2199,0,-0.166,-0.1699,-0.1737,-0.1782,-0.1789,-0.1859,-0.1966,-0.1922,-0.1992,-0.2116,-0.2229,-0.2115,-0.2135,-0.2108,-0.1943,-0.1966,-0.1819,-0.188,-0.1653,-0.1668,-0.168,-0.1617,-0.1542,-0.154,-0.1538,-0.1536,0,0,-0.1644,-0.1639,-0.165,-0.1665,-0.1712,-0.1684,-0.1721,-0.1693,-0.1709,-0.1708,-0.174,-0.1959,-0.2066,-0.1781,-0.1744,-0.1621,-0.1599,-0.1542,-0.207,-0.1815,-0.1823,-0.1861,-0.1788,0,0,0,0,0]},{"header":{"parameterUnit":"m.s-1","parameterCategory":2,"la1":30.2991,"la2":30.254,"lo1":-89.0895,"lo2":-89.0444,"dy":0.0017,"dx":0.0017,"nx":28,"ny":28,"refTime":"2024-03-01T09:00:00:Z","depth":"2","parameterNumber":3,"parameterNumberName":"V-component_of_CURRENTS"},"data":[0,0,0,0,0,0,0,0,0,0,0,0,0,0,0,0,0,0,0,0,0,0,0,0,0,0,0,0,0,0,0,0,0,0,0,0,0,0,0,0,0,0,0,0,0,0,0,0,0,0,0,0,0,0,0,0,0,0,-0.004,-0.004,0,0.0051,0.0053,0.0054,0.0127,0.0127,0.0128,0.0128,0.0243,0.0245,0.0248,0,0,0,0,0,0,0,0,0,0,0,0,0,-0.0069,-0.0069,-0.004,-0.004,-0.0039,0.0051,0.0053,0.0055,0.0127,0.0127,0.0128,0.0128,0.0242,0.0245,0.0249,0,0,0,0,0,0,0,0,0,0,0,0,0,-0.002,-0.0069,-0.004,0.0004,0.0009,0.0051,0.0053,0.0055,0.0127,0.0127,0.0128,0.0128,0.0241,0.0245,0.0249,0.0269,0,0,0.0262,0.0264,0,0,0,0,0,0,0,0,-0.0023,-0.0018,-0.0003,0.0001,0.0006,0.0073,0.0085,0.0126,0.0127,0.0088,0.0128,0.0128,0.0184,0.0193,0.0217,0.0274,0.0279,0.0262,0.0265,0.0267,0.0268,0,0,0,0,0,0,0,-0.0027,-0.0021,0.0002,-0.0003,0.0003,0.0047,0.0055,0.0094,0.0138,0.0091,0.0095,0.0097,0.0188,0.0213,0.022,0.0281,0.0262,0.0266,0.0269,0.027,0.039,0.0391,0,0,0,0,0,0,-0.0054,-0.0025,-0.0001,0.0004,-0.0014,0.0047,0.0055,0.0056,0.0137,0.0148,0.0096,0.01,0.0206,0.0215,0.0225,0.0273,0.0267,0.0271,0.0273,0.039,0.039,0.0391,0,0,0,0,0,0,-0.0055,-0.0053,-0.0005,-0.0013,-0.0004,0.0046,0.0047,0.0057,0.0084,0.014,0.0152,0.0111,0.0206,0.0219,0.0268,0.0277,0.0273,0.0277,0.0389,0.039,0.0391,0.0356,0,0,0,0,0,0,-0.0056,-0.0053,-0.0058,-0.0015,-0.0005,0.0013,0.0046,0.0059,0.0081,0.0087,0.0156,0.0167,0.0207,0.0261,0.0272,0.0283,0.028,0.0388,0.0389,0.039,0.0356,0.0355,0.0354,0,0,0,0,0,-0.0057,-0.0068,-0.0059,-0.0056,-0.0015,0.0013,0.0022,0.0064,0.0081,0.009,0.0144,0.0165,0.0276,0.0265,0.0278,0.029,0.0388,0.0389,0.039,0.0356,0.0355,0.0354,0,0,0,0,0,0,-0.0081,-0.0061,-0.005,-0.0054,-0.0028,0.0023,0.0031,0.0059,0.0109,0.0118,0.0175,0.019,0.0235,0.0267,0.0253,0.0328,0.0335,0.0339,0.0304,0.0304,0.0303,0.0297,0.0284,0,0,0,0,0,-0.0093,-0.0097,-0.0067,-0.0071,-0.0061,-0.0015,0.0002,0.003,0.0075,0.0098,0.0146,0.02,0.025,0.0279,0.0324,0.0365,0.0393,0.0381,0.038,0.0379,0.0384,0.0443,0.0448,0.0396,0.0396,0.0396,0,0,-0.0106,-0.0095,-0.0099,-0.0077,-0.0051,-0.0036,-0.0002,0.0019,0.0042,0.0101,0.0149,0.0196,0.0259,0.0309,0.0331,0.0337,0.0405,0.0381,0.038,0.0385,0.0445,0.045,0.0455,0.0397,0.0396,0.0396,0,0,-0.0136,-0.0124,-0.0136,-0.0116,-0.0089,-0.0054,-0.0053,-0.0003,0.003,0.0076,0.0128,0.0184,0.0251,0.0309,0.0345,0.0367,0.0395,0.0373,0.0372,0.0429,0.0434,0.0438,0.0458,0.0465,0.0378,0.0378,0.0378,0,-0.0153,-0.0161,-0.0134,-0.0134,-0.0121,-0.0068,-0.0066,-0.0022,0.004,0.0071,0.0084,0.021,0.0257,0.0336,0.0346,0.0366,0.0387,0.0367,0.0427,0.0433,0.0438,0.0458,0.0466,0.0376,0.0377,0.0377,0.0377,0,-0.0186,-0.0188,-0.0192,-0.0173,-0.0152,-0.0143,-0.0088,-0.0051,-0.0007,0.0042,0.012,0.0198,0.0274,0.0298,0.033,0.0395,0.0392,0.0413,0.0425,0.0441,0.0461,0.0469,0.0374,0.0375,0.0375,0.0376,0,0,-0.0233,-0.0221,-0.022,-0.022,-0.0172,-0.016,-0.0114,-0.0057,-0.0022,0.0053,0.0106,0.0205,0.0251,0.0295,0.0349,0.0405,0.0452,0.0419,0.0423,0.0431,0.055,0.0606,0.0621,0.0481,0.0483,0.0484,0.054,0,-0.0265,-0.0287,-0.0259,-0.026,-0.0264,-0.0198,-0.0161,-0.0098,-0.0031,0.0035,0.0137,0.0202,0.0249,0.0284,0.0352,0.0431,0.0477,0.0433,0.0542,0.0545,0.0587,0.0635,0.0519,0.0565,0.0549,0.055,0.0551,0,-0.0298,-0.031,-0.033,-0.0307,-0.03,-0.0282,-0.0211,-0.0173,-0.006,-0.0009,0.0088,0.0164,0.0272,0.0298,0.0451,0.0418,0.0477,0.0535,0.0539,0.0614,0.0619,0.0554,0.0582,0.0566,0.0565,0.0564,0.0563,0,-0.0349,-0.0351,-0.0373,-0.0367,-0.0331,-0.0313,-0.0281,-0.0185,-0.0157,-0.0037,-0.0003,0.0145,0.0206,0.0326,0.0457,0.0451,0.0609,0.0617,0.072,0.0722,0.066,0.0655,0.0713,0.0713,0.0713,0.0713,0.0712,0,-0.039,-0.0403,-0.0401,-0.0413,-0.0423,-0.0372,-0.0353,-0.0292,-0.0213,-0.0186,-0.0039,0.0016,0.0215,0.0335,0.045,0.0622,0.0608,0.0735,0.0759,0.0643,0.0637,0.067,0.0664,0.0715,0.0714,0.0714,0.0713,0,-0.0436,-0.0435,-0.0465,-0.0455,-0.0452,-0.0459,-0.043,-0.0421,-0.0328,-0.0288,-0.0259,-0.0083,0.0089,0.0284,0.0481,0.0606,0.0764,0.0815,0.0657,0.0665,0.0831,0.0823,0.0947,0.095,0.0952,0.0954,0.0956,0,-0.0462,-0.0486,-0.0516,-0.0547,-0.0546,-0.0551,-0.0563,-0.049,-0.0483,-0.0355,-0.035,-0.0162,-0.0032,0.0304,0.0543,0.0778,0.0802,0.0831,0.0829,0.0853,0.0863,0.0851,0.084,0.0703,0.0702,0.0702,0.0701,0,-0.0512,-0.0526,-0.056,-0.064,-0.0672,-0.0709,-0.0714,-0.0726,-0.0643,-0.06,-0.0511,-0.039,-0.0038,0.0222,0.0577,0.0696,0.08,0.0835,0.0905,0.0685,0.0635,0.0641,0.0636,0.0698,0.0698,0.0698,0.0699,0.0699,-0.0549,-0.0598,-0.0662,-0.0736,-0.0798,-0.0874,-0.0916,-0.0914,-0.0921,-0.0869,-0.0693,-0.0528,-0.0165,0.0281,0.056,0.0807,0.0817,0.0863,0.0858,0.0855,0.0841,0.0802,0.0889,0.089,0.0891,0.0892,0.0893,0,-0.0607,-0.067,-0.0756,-0.0863,-0.0976,-0.097,-0.1033,-0.1069,-0.1111,-0.1032,-0.0935,-0.0597,-0.023,0.0153,0.0532,0.0813,0.0761,0.0856,0.0729,0.073,0.0731,0.0707,0.0721,0.0722,0.0723,0.0724,0,0,-0.0638,-0.0747,-0.0811,-0.1013,-0.1093,-0.1226,-0.1276,-0.1306,-0.1275,-0.1244,-0.1124,-0.0854,-0.032,-0.0063,0.0293,0.0506,0.0528,0.0506,0.0599,0.0399,0.0397,0.068,0.0638,0,0,0,0,0]}],[{"header":{"parameterUnit":"m.s-1","parameterCategory":2,"la1":30.2991,"la2":30.254,"lo1":-89.0895,"lo2":-89.0444,"dy":0.0017,"dx":0.0017,"nx":28,"ny":28,"refTime":"2024-03-01T09:00:00:Z","depth":"4","parameterNumber":2,"parameterNumberName":"U-component_of_CURRENTS"},"data":[0,0,0,0,0,0,0,0,0,0,0,0,0,0,0,0,0,0,0,0,0,0,0,0,0,0,0,0,0,0,0,0,0,0,0,0,0,0,0,0,0,0,0,0,0,0,0,0,0,0,0,0,0,0,0,0,0,0,-0.0615,-0.0614,0,-0.0655,-0.0657,-0.0658,-0.0777,-0.0778,-0.0779,-0.078,-0.0899,-0.0901,-0.0903,0,0,0,0,0,0,0,0,0,0,0,0,0,-0.0487,-0.0491,-0.0615,-0.0614,-0.0613,-0.0655,-0.0657,-0.0659,-0.0777,-0.0778,-0.078,-0.0781,-0.0899,-0.0901,-0.0904,0,0,0,0,0,0,0,0,0,0,0,0,0,-0.0551,-0.0493,-0.0615,-0.0666,-0.067,-0.0654,-0.0657,-0.0659,-0.0776,-0.0778,-0.078,-0.0782,-0.0898,-0.0901,-0.0904,-0.0885,0,0,-0.0913,-0.0914,0,0,0,0,0,0,0,0,-0.0548,-0.0558,-0.0659,-0.0662,-0.0667,-0.07,-0.0654,-0.0734,-0.0776,-0.0752,-0.078,-0.0783,-0.0829,-0.0838,-0.0861,-0.0891,-0.0896,-0.0913,-0.0915,-0.0917,-0.0917,0,0,0,0,0,0,0,-0.0543,-0.0555,-0.0646,-0.0658,-0.0662,-0.0633,-0.0648,-0.067,-0.0792,-0.0754,-0.0759,-0.0739,-0.0834,-0.0858,-0.0865,-0.0898,-0.0913,-0.0916,-0.0918,-0.0919,-0.1041,-0.1043,0,0,0,0,0,0,-0.0515,-0.0552,-0.0644,-0.0646,-0.0593,-0.0633,-0.065,-0.0699,-0.0791,-0.0801,-0.0737,-0.0744,-0.0852,-0.0861,-0.0869,-0.0961,-0.0917,-0.0919,-0.0921,-0.104,-0.1042,-0.1043,0,0,0,0,0,0,-0.0514,-0.0526,-0.0642,-0.0583,-0.0594,-0.0633,-0.0688,-0.0699,-0.079,-0.0774,-0.079,-0.0822,-0.0854,-0.0865,-0.0949,-0.0962,-0.0921,-0.0923,-0.1038,-0.104,-0.1042,-0.1075,0,0,0,0,0,0,-0.0511,-0.0527,-0.0573,-0.0584,-0.0596,-0.0684,-0.0685,-0.0698,-0.0763,-0.0775,-0.0851,-0.086,-0.0856,-0.0945,-0.0952,-0.0966,-0.0926,-0.1036,-0.1039,-0.1042,-0.1072,-0.1078,-0.1083,0,0,0,0,0,-0.0508,-0.0565,-0.0578,-0.0587,-0.0656,-0.0684,-0.0693,-0.0731,-0.0766,-0.0822,-0.087,-0.0861,-0.0966,-0.0949,-0.0957,-0.0972,-0.1035,-0.1038,-0.1041,-0.1069,-0.1076,-0.1082,0,0,0,0,0,0,-0.0561,-0.058,-0.0596,-0.0667,-0.0689,-0.07,-0.0739,-0.077,-0.0854,-0.0881,-0.0894,-0.0907,-0.0977,-0.098,-0.0962,-0.1015,-0.0993,-0.0998,-0.1011,-0.1018,-0.1023,-0.1012,-0.0928,0,0,0,0,0,-0.058,-0.0621,-0.0637,-0.0696,-0.0713,-0.0742,-0.0765,-0.0796,-0.0842,-0.0886,-0.0918,-0.0955,-0.0983,-0.1012,-0.1035,-0.1078,-0.108,-0.1089,-0.1094,-0.1099,-0.1097,-0.1116,-0.1122,-0.1054,-0.1054,-0.1054,0,0,-0.061,-0.0623,-0.065,-0.0704,-0.073,-0.0767,-0.077,-0.0827,-0.0865,-0.088,-0.0967,-0.0986,-0.1003,-0.1044,-0.1074,-0.1058,-0.1125,-0.1103,-0.1106,-0.1102,-0.1119,-0.1126,-0.1132,-0.1056,-0.1055,-0.1055,0,0,-0.0657,-0.0716,-0.0755,-0.078,-0.0809,-0.0822,-0.0854,-0.0896,-0.0937,-0.1003,-0.1012,-0.1049,-0.1105,-0.11,-0.1109,-0.1163,-0.1156,-0.1173,-0.1189,-0.1208,-0.1213,-0.1218,-0.1247,-0.1254,-0.1171,-0.1171,-0.1171,0,-0.0694,-0.075,-0.0772,-0.081,-0.0825,-0.0859,-0.0905,-0.0944,-0.1005,-0.1025,-0.1044,-0.1104,-0.1121,-0.1147,-0.1159,-0.1172,-0.119,-0.116,-0.1213,-0.1218,-0.1222,-0.125,-0.1257,-0.1173,-0.1173,-0.1172,-0.1172,0,-0.0748,-0.0806,-0.0835,-0.0889,-0.0921,-0.0968,-0.0995,-0.1047,-0.1086,-0.1099,-0.1154,-0.1168,-0.1196,-0.1199,-0.1199,-0.1227,-0.1235,-0.122,-0.1192,-0.123,-0.1259,-0.1265,-0.1176,-0.1175,-0.1174,-0.1174,0,0,-0.0786,-0.0859,-0.0869,-0.0901,-0.0966,-0.0994,-0.1057,-0.1101,-0.1144,-0.1183,-0.1221,-0.1246,-0.1245,-0.1254,-0.1247,-0.1254,-0.13,-0.1253,-0.1253,-0.1274,-0.1361,-0.1339,-0.1344,-0.13,-0.1301,-0.1302,-0.1375,0,-0.0821,-0.0891,-0.0918,-0.0993,-0.1036,-0.1075,-0.1123,-0.1168,-0.1206,-0.125,-0.125,-0.1292,-0.1269,-0.1288,-0.1291,-0.1302,-0.1317,-0.1282,-0.1327,-0.1329,-0.1297,-0.1351,-0.1305,-0.138,-0.1381,-0.1382,-0.1383,0,-0.0848,-0.0889,-0.0962,-0.1035,-0.106,-0.1108,-0.1178,-0.1223,-0.1277,-0.1308,-0.1333,-0.1347,-0.1366,-0.1342,-0.1373,-0.1358,-0.1365,-0.1364,-0.1367,-0.1336,-0.1319,-0.133,-0.1395,-0.1394,-0.1393,-0.1392,-0.1392,0,-0.0823,-0.0914,-0.0966,-0.0994,-0.1086,-0.1126,-0.1175,-0.124,-0.1284,-0.1343,-0.1391,-0.1406,-0.1445,-0.1438,-0.1455,-0.1423,-0.1495,-0.1448,-0.1433,-0.1432,-0.1412,-0.1406,-0.147,-0.147,-0.147,-0.147,-0.1469,0,-0.0824,-0.087,-0.0963,-0.0992,-0.1061,-0.1124,-0.1196,-0.1248,-0.1324,-0.139,-0.1417,-0.1476,-0.1476,-0.152,-0.1493,-0.1504,-0.1534,-0.1448,-0.1451,-0.1428,-0.1423,-0.1418,-0.1411,-0.1472,-0.1472,-0.1471,-0.1471,0,-0.0786,-0.0848,-0.0912,-0.1014,-0.1052,-0.1097,-0.1213,-0.1263,-0.1346,-0.1435,-0.1465,-0.1553,-0.1617,-0.162,-0.1639,-0.1578,-0.1569,-0.1565,-0.1576,-0.1576,-0.1477,-0.1471,-0.1532,-0.1532,-0.1532,-0.1532,-0.1532,0,-0.0771,-0.0801,-0.0912,-0.0957,-0.101,-0.1092,-0.1156,-0.1257,-0.1318,-0.1484,-0.1528,-0.1639,-0.1685,-0.1692,-0.1691,-0.1659,-0.163,-0.1613,-0.1497,-0.1488,-0.1485,-0.1479,-0.1473,-0.1532,-0.1532,-0.1532,-0.1532,0,-0.0737,-0.0779,-0.0829,-0.092,-0.0996,-0.1077,-0.118,-0.1223,-0.1358,-0.1452,-0.1567,-0.1604,-0.169,-0.1684,-0.1695,-0.1656,-0.1605,-0.1611,-0.1608,-0.1499,-0.1488,-0.1483,-0.1478,-0.1531,-0.1531,-0.1531,-0.1531,0,-0.0704,-0.0725,-0.0795,-0.087,-0.0964,-0.1044,-0.1105,-0.1209,-0.1283,-0.1468,-0.1514,-0.1623,-0.1711,-0.1689,-0.1693,-0.1668,-0.1609,-0.1518,-0.1519,-0.152,-0.1476,-0.1459,-0.1507,0,0,0,0,0,-0.0665,-0.0687,-0.0749,-0.0826,-0.0919,-0.0973,-0.1118,-0.1182,-0.1324,-0.1384,-0.1445,-0.1523,-0.1565,-0.1609,-0.157,-0.1653,-0.1592,-0.16,-0.1483,-0.1529,-0.1529,-0.1476,0,0,0,0,0,0,-0.0639,-0.0686,-0.0717,-0.0774,-0.0815,-0.0912,-0.0999,-0.1101,-0.1141,-0.1289,-0.1315,-0.1424,-0.1469,-0.1557,-0.1532,-0.1543,-0.144,-0.1662,-0.1658,-0.1529,-0.1529,-0.153,-0.1475,0,0,0,0,0]},{"header":{"parameterUnit":"m.s-1","parameterCategory":2,"la1":30.2991,"la2":30.254,"lo1":-89.0895,"lo2":-89.0444,"dy":0.0017,"dx":0.0017,"nx":28,"ny":28,"refTime":"2024-03-01T09:00:00:Z","depth":"4","parameterNumber":3,"parameterNumberName":"V-component_of_CURRENTS"},"data":[0,0,0,0,0,0,0,0,0,0,0,0,0,0,0,0,0,0,0,0,0,0,0,0,0,0,0,0,0,0,0,0,0,0,0,0,0,0,0,0,0,0,0,0,0,0,0,0,0,0,0,0,0,0,0,0,0,0,-0.0284,-0.0284,0,-0.0242,-0.0242,-0.0241,-0.0236,-0.0236,-0.0236,-0.0237,-0.0136,-0.0133,-0.013,0,0,0,0,0,0,0,0,0,0,0,0,0,-0.0268,-0.0269,-0.0284,-0.0284,-0.0283,-0.0242,-0.0242,-0.0241,-0.0236,-0.0236,-0.0236,-0.0237,-0.0137,-0.0133,-0.013,0,0,0,0,0,0,0,0,0,0,0,0,0,-0.0258,-0.027,-0.0285,-0.0274,-0.0272,-0.0242,-0.0242,-0.0241,-0.0236,-0.0236,-0.0237,-0.0237,-0.0138,-0.0134,-0.0129,-0.0096,0,0,-0.0116,-0.0114,0,0,0,0,0,0,0,0,-0.0259,-0.0259,-0.0276,-0.0274,-0.0273,-0.0243,-0.0199,-0.0189,-0.0236,-0.0252,-0.0237,-0.0237,-0.0164,-0.0158,-0.0153,-0.0091,-0.0087,-0.0116,-0.0113,-0.0111,-0.011,0,0,0,0,0,0,0,-0.0259,-0.026,-0.027,-0.0275,-0.0273,-0.0239,-0.0239,-0.0197,-0.0207,-0.0251,-0.025,-0.0241,-0.0163,-0.0157,-0.015,-0.0086,-0.0116,-0.0112,-0.0109,-0.0108,0.0019,0.0019,0,0,0,0,0,0,-0.0265,-0.0261,-0.0271,-0.0268,-0.0264,-0.024,-0.024,-0.0254,-0.0209,-0.0202,-0.0241,-0.0241,-0.0165,-0.0156,-0.0147,-0.0103,-0.0111,-0.0107,-0.0105,0.0018,0.0019,0.002,0,0,0,0,0,0,-0.0265,-0.0267,-0.0273,-0.026,-0.0259,-0.024,-0.0256,-0.0253,-0.0259,-0.0202,-0.0195,-0.0252,-0.0165,-0.0153,-0.0106,-0.0099,-0.0105,-0.0101,0.0017,0.0018,0.0019,-0.0017,0,0,0,0,0,0,-0.0266,-0.0268,-0.0278,-0.0262,-0.026,-0.0268,-0.0255,-0.0252,-0.0252,-0.0252,-0.0208,-0.0199,-0.0164,-0.0113,-0.0102,-0.0094,-0.0098,0.0016,0.0018,0.0019,-0.0017,-0.0017,-0.0018,0,0,0,0,0,-0.0266,-0.0284,-0.028,-0.028,-0.0276,-0.0268,-0.0264,-0.0252,-0.0252,-0.0259,-0.0217,-0.0201,-0.0096,-0.0109,-0.0096,-0.0086,0.0015,0.0017,0.0019,-0.0017,-0.0017,-0.0018,0,0,0,0,0,0,-0.0288,-0.0284,-0.0279,-0.0297,-0.0287,-0.0266,-0.0264,-0.0261,-0.0236,-0.0229,-0.0188,-0.0174,-0.0131,-0.0102,-0.0117,-0.0045,-0.0039,-0.0035,-0.007,-0.007,-0.0071,-0.0085,-0.0094,0,0,0,0,0,-0.0296,-0.0304,-0.0294,-0.0306,-0.0303,-0.0286,-0.0281,-0.0273,-0.0247,-0.024,-0.0204,-0.0158,-0.0112,-0.0088,-0.0043,-0.0003,0.0021,0.0011,0.0011,0.001,0.0008,0.0043,0.0045,0.0025,0.0025,0.0025,0,0,-0.0306,-0.0303,-0.0308,-0.0309,-0.0298,-0.0294,-0.0286,-0.028,-0.0271,-0.0227,-0.0199,-0.0158,-0.0102,-0.0055,-0.0034,-0.0031,0.0032,0.0012,0.0011,0.001,0.0045,0.0046,0.0048,0.0026,0.0026,0.0026,0,0,-0.0325,-0.033,-0.0341,-0.0333,-0.0317,-0.0302,-0.0307,-0.0288,-0.0276,-0.0239,-0.0204,-0.0163,-0.0094,-0.0056,-0.0026,-0.0002,0.0027,0.0013,0.0001,0.0034,0.0036,0.0037,0.0078,0.0083,0.0013,0.0013,0.0013,0,-0.0337,-0.0354,-0.0342,-0.0344,-0.0337,-0.0312,-0.0318,-0.0297,-0.0262,-0.0247,-0.0232,-0.0137,-0.0094,-0.0041,-0.0029,-0.0005,0.0022,-0.0005,0.0031,0.0033,0.0036,0.0077,0.0084,0.0012,0.0012,0.0012,0.0012,0,-0.036,-0.037,-0.0374,-0.0368,-0.0358,-0.0358,-0.0327,-0.031,-0.0286,-0.026,-0.0209,-0.0145,-0.0093,-0.007,-0.0037,0.0001,0.0018,0.0023,0.0026,0.0035,0.0079,0.0086,0.0009,0.001,0.001,0.0011,0,0,-0.04,-0.0395,-0.0396,-0.04,-0.0373,-0.0372,-0.0344,-0.0321,-0.0309,-0.0256,-0.0235,-0.0152,-0.0125,-0.0089,-0.0047,-0.0013,0.0031,0.0011,0.0013,0.004,0.0113,0.012,0.0129,0.0039,0.004,0.0041,0.014,0,-0.0425,-0.0445,-0.0427,-0.0435,-0.0445,-0.0406,-0.0387,-0.0353,-0.0313,-0.028,-0.0214,-0.017,-0.013,-0.0103,-0.0062,0.001,0.0047,0.0004,0.0111,0.0114,0.011,0.0137,0.0044,0.0145,0.0147,0.0148,0.0149,0,-0.0454,-0.0466,-0.0489,-0.0481,-0.0481,-0.0474,-0.0443,-0.0421,-0.0358,-0.0324,-0.0267,-0.0213,-0.0139,-0.0117,0.0007,-0.0022,0.0042,0.0094,0.0098,0.0121,0.0135,0.0136,0.0163,0.0161,0.016,0.016,0.0159,0,-0.0497,-0.0506,-0.053,-0.0528,-0.0513,-0.0508,-0.0492,-0.0439,-0.0423,-0.0353,-0.0325,-0.0235,-0.018,-0.0094,0.003,0.0019,0.016,0.0156,0.0223,0.0225,0.0202,0.0199,0.023,0.023,0.023,0.023,0.0229,0,-0.053,-0.055,-0.0556,-0.0568,-0.0591,-0.0557,-0.0558,-0.0523,-0.0474,-0.0455,-0.0356,-0.0313,-0.0172,-0.0069,0.0025,0.0159,0.0162,0.0229,0.0251,0.0187,0.0181,0.0208,0.0204,0.0233,0.0233,0.0232,0.0231,0,-0.0567,-0.0572,-0.0606,-0.061,-0.0613,-0.0628,-0.0611,-0.061,-0.0547,-0.0516,-0.0494,-0.0359,-0.022,-0.0076,0.0082,0.0158,0.0275,0.0316,0.0252,0.0268,0.0318,0.0311,0.0397,0.0398,0.0399,0.04,0.04,0,-0.0586,-0.0609,-0.0646,-0.0672,-0.0675,-0.069,-0.0701,-0.0656,-0.0647,-0.0546,-0.0535,-0.0385,-0.0287,-0.0055,0.0099,0.0294,0.0311,0.0379,0.0335,0.0322,0.0335,0.0327,0.0319,0.0402,0.0402,0.0402,0.0402,0,-0.0623,-0.0641,-0.0669,-0.0726,-0.0756,-0.0787,-0.0791,-0.0787,-0.0727,-0.0671,-0.057,-0.0424,-0.0257,-0.0069,0.01,0.0231,0.0339,0.0389,0.0387,0.0347,0.0329,0.0339,0.0331,0.0406,0.0405,0.0405,0.0405,0,-0.0652,-0.0684,-0.0728,-0.0771,-0.0827,-0.0868,-0.0859,-0.0834,-0.0811,-0.069,-0.0658,-0.0461,-0.0334,-0.0099,0.0048,0.0194,0.0215,0.0243,0.0249,0.0248,0.0175,0.013,0.0169,0,0,0,0,0,-0.0674,-0.0712,-0.0765,-0.0821,-0.0882,-0.091,-0.0917,-0.0894,-0.0831,-0.0781,-0.0717,-0.0565,-0.0305,-0.0178,-0.0038,0.0056,0.0237,0.0227,0.027,0.0424,0.042,0.0361,0,0,0,0,0,0,-0.0693,-0.0747,-0.0772,-0.0861,-0.0906,-0.097,-0.0981,-0.0936,-0.089,-0.0803,-0.0671,-0.0552,-0.0306,-0.0406,-0.0048,0.0006,0.005,0.0364,0.0367,0.0426,0.0422,0.0419,0.0357,0,0,0,0,0]}]]